Buenos Aires, Argentina

2:47 AM ART on September 05, 2015 (GMT -0300)
Chacarita | | Change Station
CLOSE
Current Station
Personal Weather Station
Location: Buenos Aires, AUTONOMOUS CITY OF BUENOS AIRES
Elevation: 82 ft
Nearby Weather Stations

Elev 82 ft 34.58 °S, 58.45 °W | Updated 16 seconds ago

Clear
Clear
58.6 °F
Feels Like 58.6 °F
N
0.2
Wind Variable Wind from West

Today
High -- | Low -- °F
--% Chance of Precip.
Yesterday
High -- | Low -- °F
Precip. -- in
7:07 AM 6:37 PM
Waning Gibbous, 52% visible
Pressure 30.24 in
Visibility -9999.0 miles
Clouds
Dew Point 39 °F
Humidity 48%
Rainfall 0.00 in
Snow Depth Not available.
UV Not available.
Pollen Not available.
Air Quality Not available.
Flu Activity Not available.
METAR SABE 050500Z 27003KT CAVOK 13/05 Q1024
Pressure 30.24 in
Visibility -9999.0 miles
Clouds
Dew Point 39 °F
Humidity 48%
Rainfall 0.00 in
Snow Depth Not available.
UV Not available.
Pollen Not available.
Air Quality Not available.
Flu Activity Not available.
METAR SABE 050500Z 27003KT CAVOK 13/05 Q1024

10-Day Weather Forecast

×

Almanac

Astronomy

Sep. 05, 2015 Rise Set
Actual Time
Civil Twilight
Nautical Twilight
Astronomical Twilight
Moon
Length of Visible Light
Length of Day
Tomorrow will be .
, % of the Moon is Illuminated

Today's Extremes

Country Highs Country Lows

Community

WunderPhotos

Upload Photos

1,852,428 photos uploaded!

WunderBlogs® & News

Nearby

Air Quality

  Air Quality AQ Index Pollutant
Not available.

Snow Depth

Station Depth Elevation

Earthquake Activity

City Distance Mag. Time & Date
Minimum magnitude displayed is 2.5.

Coastal Water Temperatures

Place Temperature

Stations

Nearby Weather Stations

Station Location Temp. Windchill Dew Point Humidity Wind Precip. Elev Updated Type